Tracking 28794 objects as of 20-Apr-2024
HD Live streaming from Space Station
objects crossing your sky now

THOR ABLESTAR DEB

Track THOR ABLESTAR DEB now!
10-day predictions


NORAD ID: 516
Int'l Code: 1961-015FT
Perigee: 865.9 km
Apogee: 991.6 km
Inclination: 66.0 °
Period: 103.4 minutes
Semi major axis: 7299 km
RCS: 0.1377 m2 (medium)
Launch date: June 29, 1961
Source: United States (US)
Launch site: AIR FORCE EASTERN TEST RANGE (AFETR)

Note: This is SATELLITE DEBRIS
Your satellite tracking list
Your tracking list is empty




NASA's NSSDC Master Catalog

Two Line Element Set (TLE):
1 00516U 61015FT  24110.90023459  .00000551  00000-0  48110-3 0  9993
2 00516  65.9963 340.3413 0086093 211.7856 147.8004 13.92012302178638
Source of the keplerian elements: AFSPC